Temperature
17 16 16 16 16 16 16 16 15 15 15 16 16 16 16 16 16 16 16 16 16 16 16 16 16 16 16 16 16 16 16 15 15 15 15 15 15 15
16 16 16 16 16 16 16 16 15 15 15 15 15 15 16 16 16 16 16 16 16 16 16 16 15 15 15 16 16 15 15 15 15 15 15 15 15 15
16 16 16 16 16 16 16 15 15 15 15 15 15 15 15 15 15 15 15 15 15 15 15 15 15 15 15 15 15 15 15 15 15 15 15 15 15 15
16 16 16 16 15 15 15 15 15 15 15 14 15 15 15 15 15 15 15 15 15 15 15 15 15 15 15 15 15 15 15 15 15 15 15 15 14 14
16 16 15 15 15 15 15 15 15 14 14 14 14 14 14 14 14 15 15 14 14 14 14 15 15 15 15 15 14 14 14 14 14 14 14 14 14 14
16 15 15 15 15 15 15 15 14 14 14 14 14 14 14 14 14 14 14 14 14 14 14 14 14 14 14 14 14 14 14 14 14 14 14 14 14 14
15 15 15 15 15 14 14 14 14 14 14 13 13 13 13 13 13 13 13 14 14 14 14 14 14 14 14 14 14 14 14 14 14 14 13 13 13 13
15 15 15 15 15 14 14 14 14 13 13 13 13 13 13 13 13 13 13 13 13 13 13 13 13 13 13 13 13 13 13 13 13 13 13 13 13 13
15 15 15 15 14 14 14 14 13 13 13 13 13 13 12 12 12 12 12 12 12 12 12 13 13 13 13 13 13 13 13 13 13 13 13 13 13 13
15 15 14 14 14 14 14 13 13 13 13 13 12 12 12 12 12 12 12 12 12 12 12 12 12 12 13 13 13 12 12 12 12 12 12 13 12 12
15 14 14 14 14 13 13 13 13 13 13 13 12 12 12 12 12 12 12 12 12 12 12 11 12 12 12 12 12 12 12 12 12 12 12 12 12 12
14 14 14 14 13 13 13 13 13 13 12 12 12 12 12 12 12 12 12 11 11 11 11 11 11 11 11 11 12 12 12 12 12 12 12 12 12 12
14 14 14 13 13 13 12 12 12 12 12 12 12 12 12 12 12 11 11 11 11 11 11 10 10 10 10 10 11 11 11 11 11 11 11 11 11 11
14 13 13 13 13 13 12 12 12 12 12 12 12 12 12 12 11 11 11 11 11 11 10 10 10 10 10 10 10 10 11 11 11 11 11 11 11 11
13 13 13 13 12 12 12 12 12 11 11 11 11 11 11 11 11 11 11 11 11 11 10 10 10 10 10 10 10 10 10 10 11 11 11 11 10 11
13 13 12 12 12 12 12 11 11 11 11 11 11 11 11 11 11 11 10 10 10 11 10 10 10 10 10 10 10 10 10 10 10 10 10 10 10 10
12 12 12 12 12 11 11 11 11 11 10 10 10 10 10 10 10 10 10 10 10 10 10 10 10 10 10 10 10 10 10 10 10 10 10 10 10 10
11 11 11 11 11 11 11 10 10 10 10 10 10 9 9 9 9 9 9 9 9 9 9 9 9 9 9 9 9 9 9 9 9 9 9 9 10 10
11 11 10 10 10 10 10 10 10 9 9 9 9 9 9 9 9 9 9 9 9 9 9 9 9 9 8 8 9 9 9 9 9 9 9 9 9 10
10 10 10 10 10 10 10 9 9 9 9 9 8 8 8 8 8 8 8 8 8 8 8 8 8 8 8 8 8 9 9 9 9 9 9 9 9 9
10 10 10 9 9 9 9 9 9 9 8 8 8 8 8 8 8 8 8 8 8 8 8 8 8 8 8 8 8 8 8 8 8 8 8 8 8 8
9 9 9 9 9 9 9 9 9 9 8 8 8 8 8 8 8 7 7 7 7 7 7 8 8 8 8 8 8 8 8 8 8 8 8 8 8 8
9 9 9 9 8 8 8 8 8 8 8 8 7 7 7 7 7 7 7 7 7 7 7 7 7 7 8 7 7 7 7 7 8 8 8 8 8 8
Wind_Speed
2 1 1 2 1 2 2 3 2 3 3 3 2 2 3 4 5 5 5 6 6 7 7 7 7 7 7 7 8 7 7 7 7 7 8 9 9 10
1 1 1 2 2 2 2 2 3 3 4 3 3 3 3 4 5 4 5 6 6 6 6 6 7 7 6 6 6 7 7 7 7 7 8 9 9 9
2 1 2 2 2 2 2 2 2 3 4 4 3 3 3 4 5 5 4 4 4 5 5 5 5 5 6 6 6 6 6 7 7 8 8 9 9 10
3 2 2 2 2 2 2 2 3 3 4 5 3 3 3 4 4 4 4 4 4 5 5 5 5 4 5 5 5 5 6 6 7 7 7 8 9 10
3 3 4 2 3 3 3 3 2 2 3 3 4 3 3 3 3 3 3 3 4 5 4 4 4 4 4 4 4 4 5 6 6 6 7 7 8 8
3 4 4 4 4 4 3 3 3 3 3 3 4 3 3 3 2 3 3 3 3 4 4 3 3 3 3 4 4 4 4 5 6 6 6 7 7 8
3 4 5 5 5 4 3 3 3 3 3 3 4 3 3 3 3 2 4 4 4 2 3 3 2 2 3 3 3 4 4 4 5 5 6 6 7 7
4 4 4 5 5 5 5 5 4 4 4 4 4 4 5 4 3 3 3 3 3 2 2 3 2 3 3 3 4 4 5 4 4 4 5 6 7 7
4 4 3 3 3 3 4 4 5 6 6 5 5 5 5 4 3 4 4 3 4 3 2 4 3 4 4 4 5 5 5 4 4 4 4 5 6 7
4 4 4 4 4 3 3 4 4 5 5 5 6 6 6 5 4 4 4 4 4 4 2 3 3 4 5 4 5 5 5 4 4 5 5 5 5 6
4 4 4 5 5 4 3 4 5 5 5 5 6 6 6 6 4 3 3 2 4 3 2 2 3 3 4 4 4 5 5 5 5 5 5 5 5 5
4 4 5 5 6 5 4 4 6 6 5 5 4 5 5 5 4 5 4 3 3 3 2 2 2 2 3 3 3 3 4 4 5 5 5 5 4 4
4 4 4 5 5 6 6 5 7 6 4 4 4 4 4 3 3 4 4 5 5 4 3 2 2 2 3 3 3 3 3 3 3 3 4 5 5 5
4 4 3 4 5 5 5 6 6 5 3 3 3 4 4 4 4 4 4 5 6 7 6 4 3 4 3 4 4 3 3 3 3 2 2 2 4 6
3 3 4 5 5 4 4 5 3 2 2 3 4 5 4 5 4 3 3 3 4 5 5 5 5 4 4 5 4 4 3 4 3 3 2 2 3 2
2 3 3 4 3 3 4 3 2 2 3 3 4 5 4 4 3 3 3 3 3 4 4 4 4 4 4 5 5 5 4 3 3 3 3 3 3 3
1 1 2 2 2 3 3 3 3 2 3 3 4 4 4 3 3 3 2 2 3 3 4 3 3 3 5 5 4 5 4 4 4 3 3 3 3 3
1 1 2 2 3 4 4 4 3 3 3 3 3 4 4 4 4 3 2 3 4 4 4 3 3 2 2 3 5 5 4 4 3 3 3 3 4 4
1 1 2 3 3 4 4 4 4 4 4 3 4 4 4 4 4 4 3 3 4 4 4 3 3 2 3 5 3 4 4 4 3 3 3 4 5 5
1 2 3 3 3 4 4 4 4 3 3 3 4 4 4 4 4 4 4 4 4 4 4 4 3 3 4 5 4 4 5 4 3 4 4 4 4 4
2 3 3 3 3 4 4 4 3 3 3 3 3 4 4 4 4 5 4 5 5 4 5 5 4 4 3 2 2 3 3 3 4 4 3 3 3 3
3 3 3 3 3 4 4 4 3 3 3 3 3 4 4 4 5 5 5 5 4 5 5 4 4 2 2 3 4 4 4 4 3 2 3 4 3 3
3 3 3 4 4 4 4 4 4 4 3 3 4 4 4 4 4 4 5 5 5 4 4 3 3 2 2 2 3 3 4 4 3 3 3 4 3 3
Wind_Direction
249 242 250 263 243 233 225 220 231 279 291 291 294 309 317 310 316 312 303 303 291 283 272 263 260 262 258 254 253 252 248 246 244 243 242 243 240 234
244 240 256 268 265 254 240 233 221 231 263 274 269 293 311 321 325 316 307 309 301 292 280 271 264 262 258 256 255 253 248 246 245 242 238 234 233 234
263 250 263 266 273 272 253 238 234 226 252 276 274 293 300 312 320 318 312 309 314 304 293 285 279 271 263 257 256 257 255 253 249 245 240 235 232 231
250 253 269 272 274 275 264 257 250 235 236 270 284 290 284 301 307 311 318 316 309 309 300 296 296 294 278 262 252 251 251 253 255 254 248 242 235 230
244 243 253 252 268 270 266 266 264 259 237 254 280 281 285 309 320 325 326 316 315 313 306 300 303 304 298 274 257 252 251 251 252 252 247 243 239 233
252 247 250 245 250 254 261 259 256 260 258 263 278 288 286 299 307 315 322 322 312 315 317 308 306 306 307 293 274 270 261 255 250 244 242 240 238 234
265 261 257 255 249 249 260 255 251 255 263 272 281 288 296 303 304 299 296 307 303 297 312 311 318 325 317 299 278 275 269 260 253 247 239 237 235 231
264 271 270 271 267 262 257 249 240 246 254 256 269 277 284 284 288 292 294 304 299 298 299 297 293 291 300 299 286 279 269 264 259 254 246 238 235 232
251 260 274 278 271 263 265 270 267 261 248 241 251 261 268 270 273 281 277 277 275 283 286 285 285 284 292 288 276 270 264 259 256 254 247 238 234 231
248 245 252 271 271 259 263 275 275 271 262 248 246 255 259 257 246 256 265 279 279 271 239 264 280 282 290 287 270 260 262 263 264 263 256 241 232 228
263 258 251 259 266 259 256 270 283 286 281 270 260 262 264 262 246 241 253 266 283 279 233 252 278 289 285 276 275 267 265 264 263 259 253 247 237 227
280 274 261 257 263 259 248 258 275 282 293 302 297 288 277 270 246 222 226 240 264 272 246 238 268 291 293 282 278 285 278 266 257 254 252 251 241 223
270 277 279 276 271 264 251 250 257 266 279 282 286 288 286 278 266 247 230 225 240 253 246 221 247 254 255 282 290 281 283 285 277 272 258 251 236 214
263 272 279 288 291 284 270 262 263 266 270 278 281 283 282 280 275 267 256 247 240 249 249 231 239 247 254 269 282 283 282 281 274 279 281 260 247 234
269 278 288 294 297 293 284 280 273 266 268 275 278 278 278 280 285 285 280 271 267 267 258 242 244 252 245 252 265 271 282 284 269 274 274 266 260 250
289 298 298 300 301 295 304 301 283 262 255 267 277 282 288 292 291 292 288 289 285 290 282 266 250 242 246 254 253 264 266 264 272 273 273 275 264 248
287 324 342 346 338 329 320 307 299 293 277 273 276 284 288 290 291 294 282 283 277 286 297 304 291 271 252 248 257 263 267 272 269 268 266 274 272 261
139 303 305 305 302 301 302 304 304 302 295 285 278 275 277 277 281 283 273 268 272 273 275 282 298 311 304 278 236 251 265 271 279 270 260 261 275 279
118 284 286 288 293 293 290 290 293 294 293 291 283 276 275 274 273 275 274 271 272 274 276 276 269 259 276 293 280 235 256 275 270 268 262 259 266 273
294 281 285 288 292 292 290 288 287 290 289 292 288 279 272 269 269 269 268 270 274 276 279 282 271 255 252 267 274 283 256 257 263 267 278 283 282 282
297 289 288 289 292 291 288 283 276 277 282 283 284 283 276 269 267 267 267 268 267 267 272 278 278 271 272 260 279 292 293 263 246 256 266 273 287 287
302 298 300 302 302 298 293 287 281 279 279 280 281 281 282 275 268 264 261 262 263 265 272 282 289 285 265 255 274 288 302 316 315 290 262 253 251 247
304 304 306 306 307 304 301 297 290 285 282 281 280 278 279 278 273 267 262 259 259 265 279 287 296 291 286 266 271 284 294 310 320 328 330 324 270 255
Height
1514 1513 1512 1512 1511 1510 1509 1508 1508 1506 1504 1503 1503 1502 1502 1501 1500 1499 1498 1497 1496 1495 1495 1494 1494 1494 1494 1493 1494 1494 1494 1494 1494 1494 1495 1496 1496 1497
1512 1511 1510 1509 1509 1508 1507 1506 1505 1504 1502 1501 1500 1500 1499 1498 1497 1496 1495 1494 1493 1492 1492 1491 1491 1490 1490 1490 1490 1490 1490 1490 1490 1491 1492 1492 1493 1493
1509 1509 1508 1507 1506 1505 1504 1503 1502 1501 1499 1497 1497 1496 1496 1495 1494 1493 1492 1490 1489 1489 1488 1488 1487 1487 1487 1486 1487 1487 1486 1486 1487 1487 1488 1488 1488 1489
1507 1506 1505 1504 1503 1502 1501 1500 1499 1498 1497 1494 1493 1493 1492 1492 1490 1489 1488 1487 1486 1485 1485 1484 1483 1483 1483 1483 1483 1483 1483 1483 1483 1483 1483 1483 1484 1484
1504 1503 1502 1501 1500 1499 1498 1496 1496 1495 1493 1492 1490 1490 1489 1488 1487 1486 1485 1484 1483 1482 1481 1480 1480 1479 1479 1479 1479 1479 1479 1479 1479 1478 1478 1478 1479 1479
1501 1500 1499 1498 1497 1496 1495 1493 1492 1491 1490 1489 1487 1486 1485 1485 1484 1482 1481 1480 1480 1479 1478 1477 1476 1476 1476 1475 1475 1475 1475 1475 1474 1474 1474 1474 1474 1475
1498 1497 1496 1495 1494 1493 1491 1490 1489 1488 1487 1485 1484 1483 1482 1481 1480 1479 1477 1477 1476 1475 1474 1473 1473 1472 1472 1471 1471 1471 1471 1470 1470 1470 1470 1470 1470 1470
1494 1493 1493 1492 1490 1489 1488 1487 1486 1485 1484 1482 1481 1480 1479 1478 1477 1476 1475 1473 1472 1472 1471 1469 1469 1468 1468 1467 1467 1467 1467 1466 1466 1465 1465 1465 1465 1466
1490 1489 1488 1488 1487 1486 1485 1484 1483 1482 1481 1480 1478 1477 1476 1475 1474 1473 1472 1470 1469 1468 1467 1465 1465 1464 1464 1463 1463 1463 1463 1462 1461 1461 1461 1461 1461 1461
1487 1486 1485 1484 1483 1482 1481 1480 1479 1478 1477 1476 1475 1473 1473 1472 1471 1470 1469 1468 1466 1466 1464 1462 1461 1461 1460 1459 1459 1459 1459 1458 1457 1457 1456 1456 1456 1457
1483 1482 1481 1480 1479 1478 1477 1476 1475 1475 1474 1472 1471 1470 1469 1468 1467 1466 1465 1464 1462 1461 1461 1459 1457 1457 1456 1455 1455 1455 1455 1454 1453 1453 1452 1452 1452 1452
1479 1478 1478 1477 1476 1475 1474 1473 1471 1470 1470 1468 1467 1466 1465 1464 1463 1462 1461 1460 1458 1457 1457 1456 1454 1454 1452 1451 1451 1451 1451 1450 1449 1449 1448 1447 1447 1447
1475 1474 1474 1473 1472 1471 1470 1469 1467 1466 1465 1464 1462 1462 1461 1460 1459 1458 1457 1456 1455 1454 1453 1452 1451 1450 1449 1448 1447 1447 1447 1446 1445 1444 1444 1443 1443 1443
1471 1470 1469 1469 1467 1466 1466 1465 1464 1463 1461 1460 1458 1457 1457 1456 1455 1454 1453 1452 1452 1450 1450 1449 1447 1447 1446 1444 1443 1442 1442 1442 1441 1440 1440 1439 1439 1439
1467 1467 1466 1465 1464 1463 1462 1460 1459 1458 1457 1456 1454 1453 1453 1452 1451 1450 1449 1448 1447 1447 1446 1445 1444 1443 1442 1441 1439 1439 1438 1437 1437 1436 1435 1435 1435 1435
1464 1463 1462 1461 1460 1459 1458 1456 1455 1454 1452 1451 1450 1449 1448 1447 1446 1445 1444 1443 1442 1441 1442 1441 1440 1439 1438 1437 1436 1435 1435 1434 1433 1432 1432 1431 1431 1430
1460 1459 1458 1456 1456 1455 1454 1453 1451 1450 1448 1447 1446 1445 1444 1442 1441 1440 1440 1438 1437 1437 1436 1436 1436 1435 1435 1434 1432 1431 1431 1430 1430 1429 1428 1427 1426 1426
1456 1455 1454 1453 1452 1451 1450 1449 1448 1446 1445 1443 1441 1440 1439 1438 1437 1436 1436 1435 1434 1433 1432 1432 1431 1431 1430 1430 1430 1428 1427 1426 1426 1425 1424 1423 1422 1422
1453 1451 1451 1450 1449 1447 1446 1444 1443 1442 1441 1439 1437 1436 1435 1434 1433 1432 1432 1431 1430 1429 1429 1428 1427 1427 1426 1424 1424 1425 1424 1423 1422 1421 1420 1419 1418 1418
1449 1449 1448 1446 1445 1444 1442 1441 1439 1438 1436 1435 1433 1432 1431 1430 1429 1428 1427 1427 1426 1425 1425 1424 1424 1423 1422 1422 1420 1420 1420 1419 1418 1417 1416 1415 1415 1414
1447 1446 1445 1443 1441 1440 1438 1437 1436 1434 1432 1430 1429 1428 1427 1426 1424 1424 1423 1423 1422 1421 1420 1420 1420 1420 1419 1419 1417 1416 1416 1416 1415 1414 1412 1412 1411 1410
1444 1443 1441 1440 1438 1436 1435 1433 1432 1430 1428 1426 1425 1424 1422 1421 1420 1419 1419 1418 1418 1417 1417 1416 1416 1416 1415 1414 1413 1412 1412 1412 1411 1411 1410 1409 1408 1406
1441 1440 1438 1437 1435 1433 1431 1430 1428 1426 1424 1422 1421 1419 1418 1417 1416 1415 1414 1414 1414 1413 1413 1412 1412 1412 1411 1411 1410 1409 1409 1408 1407 1406 1406 1406 1406 1405